Вернуться в каталог

STARLINK-4008

АктивенСвязьVLEO
NORAD 52622·PAYLOAD·🇺🇸 United States

Запущен May 14, 2022 с Cape Canaveral Space Force Station

Loading…

Ближайшие Пролёты (ближайшие 24 часа)

TLE

СвежийSource: CelesTrak SupGP

Эпоха: Sep 14, 2026, 22:17 UTC

1 52622C 22052AA  26257.92895833 -.00023999  00000+0 -68667-3 0  2573
2 52622  53.1564 142.4697 0001334  88.8251 302.4734 15.35408316    19

Отслеживайте STARLINK-4008 в реальном времени с AllMySat

Download on the App Store